Weather in Kupay

Russia / Kurgan Oblast     55°38′53″N   63°38′53″E
temp.,
°C
wind,
m/s
gust,
m/s
humid.,
%
clouds,
%
prec.,
mm/h
press.,
hPa
HPBL,
m
7 may, fri
fri723:00+7w37520 0.0 1016136
02:00+5w48580 0.0 1018122
05:00+4wnw36680 0.0 1020101
08:00+10wnw454920 0.0 1021406
11:00+15w443632 0.0 10211165
14:00+18w453254 0.0 10211593
17:00+19wsw34315 0.0 10201716
20:00+15sw334425 0.0 102020
8 may, sat
sat823:00+12ssw33480 0.0 102019
02:00+10ssw335184 0.0 102020
05:00+9ssw2251100 0.0 102013
08:00+14s2340100 0.0 1020232
11:00+18sse3330100 0.0 10191535
14:00+20sse2324100 0.0 10182316
17:00+20e122490 0.0 10172347
20:00+17nne2234100 0.0 101718
9 may, sun
sun923:00+15nne3536100 0.0 101675
02:00+14ene2241100 0.0 101623
05:00+12ne3443100 0.0 101656
08:00+15ene1239100 0.0 1016205
11:00+20nne3630100 0.0 10161711
14:00+21ene5630100 0.0 10152650
17:00+20ne6834100 0.0 10152016
20:00+17nne4743100 0.0 1016106
10 may, mon
mon1023:00+15ne4949100 0.0 1016190
02:00+14nne4861100 0.0 1017166
05:00+11ne49745 0.0 1019169
08:00+16ne46573 0.0 1020416
11:00+21ene56395 0.0 10201997
14:00+23ene44305 0.0 10202531
17:00+23e32285 0.0 10202385
20:00+19se2240100 0.0 102116
11 may, tue
tue1123:00+15sse334534 0.0 102124
02:00+14sw3448100 0.0 102152
05:00+14w3750100 0.0 1020138
08:00+14nnw4878100 0.0 1022486
11:00+11nw81189100 3.9 1023536
14:00+9nnw81079100 0.4 1024851
17:00+8n61482100 1.3 1026757
20:00+9ne13774 0.1 1026129